SL-16 DEB, 22416

Orbit data source: Space-Track

SL-16 DEB, 22416 is space debris in LEO originally from a launch on Fri, 25 Dec 1992 UTC launched from the Tyuratam Missile And Space Complex (TTMTR). Debris objects in space refer to the collection of defunct objects orbiting the Earth. Examples of debris include non-operational satellites, rocket bodies, and fragments generated from explosions, collisions, or faulty payload assembly.

Loading next visibility...
Identifier
22416, 1992-093DH
Orbit
LEO
Country
Flag of CISCIS
Related business
Manufacturer
Unknown
Mission
Spacecraft
Bus & Motor
Unknown
Mass
Unknown
Launch date (UTC)
1992-12-25 (33 years ago)
Launch vehicle
Unknown
Launch site
Tyuratam Missile And Space Complex (TTMTR)
Object type
Payload
Rocket body
Debris
Shape & HBR
Unknown shape, 0.1 m
Radar Cross Section
Medium (>0.1 m² and <1 m²)

Expand to show TLE details & history
Last TLE update: 3 days ago

TLE from 3 days ago
0 SL-16 DEB
1 22416U 92093DH  26171.35567509 -.00000039  00000-0  49393-5 0  9991
2 22416  70.9583 137.7704 0079525 346.1441 165.8664 14.06301538716077
Epoch: 2026-06-20T08:32Z
TLE epoch observation values (Epoch: 2026-06-20T08:32:10.327Z)
Latitude
26.17341°
Longitude
-88.55908°
Altitude
930.657 km
Speed
7.361 km/s
True Right ascension
20h 32m 13s
True Declination
26° 02' 27"
Sunlit
Object was in daylight at epoch
Visualization orbit readout
Latitude
Unknown
Longitude
Unknown
Altitude
Unknown
Speed
Unknown
Apparent Right ascension
Unknown
Apparent Declination
Unknown
Sunlit
N/A
Visualization observer readout
Local Sidereal Time
11:35:57
Azimuth
Unknown
Elevation
Unknown
Doppler factor
Unknown
Orbital elements
Apogee altitude
927.634 km
Perigee altitude
812.352 km
Semi-major axis
7,248.13 km
Eccentricity
0.00795
Inclination
70.9583°
RAAN
137.7704°
Arg. of periapsis
346.1441°
True anomaly
166.0868°
Mean anomaly
165.8664°
Eccentric anomaly
165.97681°
Mean motion
3.51726 °/min
Orbital period
102.35 mins
BSTAR
0.0000049393
Loading maneuver chart data...
Computing Atmospheric mass density...
Loading historical data...
Loading historical data...
Loading historical data...
Loading historical data...
Loading historical data...
Loading historical data...
Loading historical data...

Documentation

Showing up to 5 results
|